User: anonymous   Login
Location: Cluny
(50.9333°N, 112.8167°W)
Time: 18:02:05
(UTC-06:00)
Language:

Cosmos 1743 Rocket - Orbit

View from above orbital plane
View from above orbital plane
View from above satellite
View from above satellite

Ground track
Ground track

The orbit data is extracted from the following two-line orbital elements,

1 16720U 86034B   15188.47259352  .00000283  00000-0  31785-4 0  9998
2 16720 082.5530 184.0173 0018761 287.4497 185.2483 14.83099237573911
Epoch (UTC): 07 July 2015 11:20:32
Eccentricity: 0.0018761
inclination: 82.5530°
perigee height: 606 km
apogee height: 632 km
right ascension of ascending node: 184.0173°
argument of perigee: 287.4497°
revolutions per day: 14.83099237
mean anomaly at epoch: 185.2483°
orbit number at epoch: 57391

The dashed part of the orbit path shows where the satellite is in the earth's shadow,  

DLR